Tracking 20942 objects as of 9-Jul-2020
HD Live streaming from Space Station
objects crossing your sky now

COSMOS 374

Track COSMOS 374 now!
10-day predictions
COSMOS 374 is classified as:


NORAD ID: 4594
Int'l Code: 1970-089A
Perigee: 593.7 km
Apogee: 1,984.3 km
Inclination: 63.0 °
Period: 111.2 minutes
Semi major axis: 7660 km
RCS: 0.5589 m2 (medium)
Launch date: October 23, 1970
Source: Commonwealth of Independent States (former USSR) (CIS)
Launch site: TYURATAM MISSILE AND SPACE COMPLEX (TTMTR)
aabbcc
Your satellite tracking list
Your tracking list is empty




NASA's NSSDC Master Catalog

Two Line Element Set (TLE):
1  4594U 70089A   20191.43958014 -.00000070 +00000-0 +14285-4 0  9995
2  4594 062.9576 352.3592 0907704 222.6396 130.0615 12.94962461388026
Source of the keplerian elements: AFSPC